Location: Unspecified
(42.3650°N, 71.1030°W)
Time: 15:29:09
(UTC+00:00)

Nadezhda 4 Rocket - Pass Details

Date: 02 March 2024
Orbit: 948 x 992 km, 82.9° (Epoch: 18 April)

Event Time Altitude Azimuth Distance (km) Brightness Sun altitude
Rises 23:28:11 0° 350° (N) 3,671 7.2 -10.4°
Reaches altitude 10° 23:30:43 10° 348° (NNW) 2,714 6.5 -10.9°
Maximum altitude 23:36:53 70° 266° (W) 1,016 4.3 -12.0°
Drops below altitude 10° 23:42:56 10° 184° (S) 2,670 6.3 -13.1°
Sets 23:45:25 0° 182° (S) 3,608 7.0 -13.6°
